Location: Gaast
(52.9002°N, 5.8891°E)
Time: 23:05:37
(UTC+00:00)

RESURS DK-1 - Pass Details

Date: 18 November 2025
Orbit: 524 x 535 km, 69.9° (Epoch: 04 December)

Event Time Altitude Azimuth Distance (km) Brightness Sun altitude
Rises 16:51:04 0° 325° (NW) 2,701 6.1 -10.9°
Reaches altitude 10° 16:53:16 10° 323° (NW) 1,805 5.2 -11.2°
Maximum altitude 16:57:17 71° 240° (WSW) 572 2.6 -11.8°
Drops below altitude 10° 17:01:15 10° 156° (SSE) 1,789 4.9 -12.4°
Sets 17:03:26 0° 155° (SSE) 2,675 5.7 -12.7°
